| time (UTC) | temp F | wind direction | speed MPH | gust MPH | rain 1hr in | rain 24hr in | rain mn in | humidity % | barometer mb |
| 20260906223016 | 81 | 90 | 1.0 | 4.0 | 0.00 | 0.31 | 0.21 | 73 | 1013.7 |
| 20260906222016 | 82 | 135 | 3.0 | 8.0 | 0.00 | 0.31 | 0.21 | 71 | 1013.6 |
| 20260906221015 | 82 | 113 | 1.0 | 5.0 | 0.00 | 0.31 | 0.21 | 70 | 1013.5 |
| 20260906220016 | 82 | 45 | 1.0 | 4.0 | 0.00 | 0.34 | 0.21 | 70 | 1013.5 |
| 20260906215015 | 82 | 45 | 1.0 | 6.0 | 0.00 | 0.34 | 0.21 | 71 | 1013.5 |
| 20260906214015 | 82 | 113 | 1.0 | 3.0 | 0.00 | 0.34 | 0.21 | 72 | 1013.5 |
| 20260906213015 | 81 | 90 | 1.0 | 4.0 | 0.00 | 0.34 | 0.21 | 75 | 1013.6 |
| 20260906212015 | 80 | 68 | 2.0 | 4.0 | 0.00 | 0.34 | 0.21 | 78 | 1013.5 |
| 20260906211017 | 80 | 68 | 2.0 | 7.0 | 0.00 | 0.34 | 0.21 | 77 | 1013.6 |
| 20260906210017 | 79 | 113 | 2.0 | 4.0 | 0.00 | 0.34 | 0.21 | 84 | 1013.7 |
| 20260906205017 | 79 | 90 | 1.0 | 3.0 | 0.03 | 0.34 | 0.21 | 83 | 1013.6 |
| 20260906204017 | 80 | 113 | 3.0 | 10.0 | 0.18 | 0.34 | 0.21 | 81 | 1013.4 |
| 20260906203015 | 81 | 0 | 2.0 | 4.0 | 0.19 | 0.34 | 0.21 | 85 | 1013.4 |
| 20260906202017 | 82 | 0 | 2.0 | 5.0 | 0.19 | 0.34 | 0.21 | 82 | 1013.6 |
| 20260906201017 | 82 | 0.0 | 1.0 | 0.19 | 0.34 | 0.21 | 87 | 1013.4 | |
| 20260906200017 | 81 | 338 | 1.0 | 2.0 | 0.19 | 0.34 | 0.21 | 90 | 1013.4 |
| 20260906195037 | 82 | 225 | 3.0 | 7.0 | 0.16 | 0.31 | 0.18 | 77 | 1013.7 |
| 20260906194017 | 87 | 0 | 2.0 | 4.0 | 0.01 | 0.16 | 0.03 | 69 | 1013.9 |
| 20260906193017 | 88 | 293 | 2.0 | 5.0 | 0.00 | 0.15 | 0.02 | 65 | 1013.8 |
| 20260906192017 | 87 | 23 | 2.0 | 4.0 | 0.00 | 0.15 | 0.02 | 68 | 1013.9 |
| 20260906191017 | 86 | 90 | 1.0 | 3.0 | 0.00 | 0.15 | 0.02 | 68 | 1013.8 |
| 20260906190057 | 86 | 0.0 | 1.0 | 0.00 | 0.15 | 0.02 | 70 | 1013.9 | |
| 20260906185020 | 88 | 0 | 2.0 | 5.0 | 0.00 | 0.15 | 0.02 | 64 | 1014.0 |
| 20260906184037 | 90 | 0 | 1.0 | 4.0 | 0.00 | 0.15 | 0.02 | 66 | 1014.2 |
| 20260906183017 | 89 | 45 | 2.0 | 4.0 | 0.00 | 0.15 | 0.02 | 62 | 1014.2 |
| 20260906182017 | 88 | 180 | 2.0 | 4.0 | 0.00 | 0.15 | 0.02 | 64 | 1014.4 |
| 20260906181017 | 88 | 0 | 2.0 | 5.0 | 0.00 | 0.15 | 0.02 | 62 | 1014.4 |
| 20260906180017 | 88 | 225 | 1.0 | 3.0 | 0.00 | 0.15 | 0.02 | 64 | 1014.6 |
| 20260906175017 | 88 | 203 | 2.0 | 3.0 | 0.00 | 0.15 | 0.02 | 62 | 1014.7 |
| 20260906174037 | 88 | 315 | 3.0 | 7.0 | 0.00 | 0.15 | 0.02 | 63 | 1014.9 |
| 20260906173017 | 87 | 315 | 3.0 | 7.0 | 0.00 | 0.15 | 0.02 | 63 | 1014.9 |
| 20260906172017 | 86 | 293 | 2.0 | 5.0 | 0.00 | 0.15 | 0.02 | 65 | 1014.9 |
| 20260906171017 | 86 | 338 | 2.0 | 7.0 | 0.00 | 0.15 | 0.02 | 65 | 1015.1 |
| 20260906170017 | 86 | 270 | 2.0 | 4.0 | 0.00 | 0.15 | 0.02 | 67 | 1015.2 |
| 20260906165017 | 85 | 0.0 | 2.0 | 0.00 | 0.15 | 0.02 | 71 | 1015.4 | |
| 20260906164017 | 84 | 0 | 3.0 | 6.0 | 0.00 | 0.15 | 0.02 | 69 | 1015.5 |
| 20260906163057 | 84 | 293 | 2.0 | 8.0 | 0.00 | 0.15 | 0.02 | 70 | 1015.6 |
| 20260906162017 | 84 | 293 | 1.0 | 4.0 | 0.00 | 0.15 | 0.02 | 71 | 1015.7 |
| 20260906161017 | 84 | 315 | 1.0 | 3.0 | 0.00 | 0.15 | 0.02 | 72 | 1015.8 |
| 20260906160017 | 83 | 0 | 2.0 | 6.0 | 0.00 | 0.15 | 0.02 | 73 | 1015.9 |
| 20260906155057 | 84 | 338 | 2.0 | 4.0 | 0.00 | 0.15 | 0.02 | 72 | 1015.9 |
| 20260906154017 | 84 | 90 | 1.0 | 3.0 | 0.00 | 0.15 | 0.02 | 72 | 1015.8 |
| 20260906153037 | 83 | 0 | 2.0 | 4.0 | 0.00 | 0.15 | 0.02 | 76 | 1015.8 |
| 20260906152039 | 83 | 315 | 2.0 | 4.0 | 0.00 | 0.15 | 0.02 | 73 | 1015.7 |
| 20260906151017 | 82 | 338 | 2.0 | 5.0 | 0.00 | 0.15 | 0.02 | 74 | 1015.6 |
| 20260906150017 | 82 | 293 | 1.0 | 4.0 | 0.00 | 0.15 | 0.02 | 76 | 1015.6 |
| 20260906145017 | 81 | 0 | 1.0 | 2.0 | 0.00 | 0.15 | 0.02 | 79 | 1015.7 |
| 20260906144016 | 80 | 0 | 2.0 | 4.0 | 0.00 | 0.15 | 0.02 | 80 | 1015.7 |
| 20260906143016 | 80 | 315 | 1.0 | 4.0 | 0.00 | 0.15 | 0.02 | 83 | 1015.9 |
| 20260906142017 | 79 | 203 | 2.0 | 5.0 | 0.00 | 0.15 | 0.02 | 86 | 1015.8 |
| 20260906141017 | 78 | 225 | 1.0 | 3.0 | 0.00 | 0.15 | 0.02 | 88 | 1015.6 |
| 20260906140056 | 77 | 225 | 2.0 | 3.0 | 0.00 | 0.15 | 0.02 | 91 | 1015.8 |
| 20260906135016 | 76 | 203 | 1.0 | 3.0 | 0.00 | 0.15 | 0.02 | 94 | 1015.7 |
| 20260906134016 | 75 | 225 | 1.0 | 2.0 | 0.00 | 0.15 | 0.02 | 96 | 1015.8 |
| 20260906133016 | 74 | 225 | 1.0 | 2.0 | 0.00 | 0.15 | 0.02 | 96 | 1015.9 |
| 20260906132016 | 73 | 203 | 2.0 | 4.0 | 0.00 | 0.15 | 0.02 | 96 | 1015.9 |
| 20260906131016 | 73 | 180 | 1.0 | 3.0 | 0.00 | 0.15 | 0.02 | 96 | 1015.8 |
| 20260906130036 | 72 | 203 | 1.0 | 4.0 | 0.01 | 0.15 | 0.02 | 96 | 1015.7 |
| 20260906125016 | 72 | 225 | 2.0 | 4.0 | 0.01 | 0.15 | 0.02 | 97 | 1015.7 |
| 20260906124016 | 71 | 0.0 | 2.0 | 0.01 | 0.15 | 0.02 | 96 | 1015.4 | |
| 20260906123016 | 71 | 180 | 1.0 | 2.0 | 0.01 | 0.15 | 0.02 | 97 | 1015.4 |
| 20260906122016 | 70 | 0.0 | 1.0 | 0.01 | 0.15 | 0.02 | 96 | 1015.0 | |
| 20260906121036 | 69 | 0.0 | 0.0 | 0.01 | 0.15 | 0.02 | 96 | 1014.8 | |
| 20260906120117 | 69 | 0.0 | 0.0 | 0.00 | 0.14 | 0.01 | 96 | 1014.7 | |
| 20260906115017 | 69 | 203 | 1.0 | 1.0 | 0.00 | 0.14 | 0.01 | 96 | 1014.5 |
| 20260906114016 | 69 | 0.0 | 1.0 | 0.00 | 0.14 | 0.01 | 96 | 1014.4 | |
| 20260906113016 | 69 | 0.0 | 2.0 | 0.00 | 0.14 | 0.01 | 96 | 1014.5 | |
| 20260906112016 | 69 | 0.0 | 0.0 | 0.00 | 0.14 | 0.01 | 96 | 1014.4 | |
| 20260906111036 | 69 | 0.0 | 1.0 | 0.00 | 0.14 | 0.01 | 96 | 1014.5 | |
| 20260906110036 | 69 | 0.0 | 2.0 | 0.00 | 0.14 | 0.01 | 96 | 1014.5 | |
| 20260906105016 | 69 | 0.0 | 1.0 | 0.00 | 0.14 | 0.01 | 96 | 1014.5 | |
| 20260906104016 | 69 | 0.0 | 2.0 | 0.00 | 0.14 | 0.01 | 96 | 1014.5 | |
| 20260906103016 | 69 | 0.0 | 2.0 | 0.00 | 0.14 | 0.01 | 96 | 1014.6 | |
| 20260906102016 | 69 | 0.0 | 0.0 | 0.00 | 0.14 | 0.01 | 96 | 1014.5 | |
| 20260906101017 | 69 | 0.0 | 1.0 | 0.00 | 0.14 | 0.01 | 96 | 1014.4 | |
| 20260906100036 | 69 | 0.0 | 0.0 | 0.00 | 0.14 | 0.01 | 96 | 1014.4 | |
| 20260906095016 | 69 | 0.0 | 0.0 | 0.00 | 0.14 | 0.01 | 96 | 1014.5 | |
| 20260906094016 | 69 | 0.0 | 2.0 | 0.00 | 0.14 | 0.01 | 95 | 1014.5 | |
| 20260906093016 | 70 | 0.0 | 2.0 | 0.00 | 0.14 | 0.01 | 96 | 1014.5 | |
| 20260906092016 | 69 | 315 | 1.0 | 1.0 | 0.00 | 0.14 | 0.01 | 96 | 1014.5 |
| 20260906091016 | 69 | 180 | 1.0 | 1.0 | 0.00 | 0.14 | 0.01 | 96 | 1014.5 |
| 20260906090016 | 69 | 0.0 | 1.0 | 0.00 | 0.14 | 0.01 | 96 | 1014.6 | |
| 20260906085016 | 69 | 0.0 | 0.0 | 0.00 | 0.14 | 0.01 | 96 | 1014.5 | |
| 20260906084016 | 69 | 0.0 | 0.0 | 0.00 | 0.14 | 0.01 | 96 | 1014.6 | |
| 20260906083021 | 70 | 0.0 | 2.0 | 0.00 | 0.14 | 0.01 | 95 | 1014.5 | |
| 20260906082016 | 70 | 0.0 | 0.0 | 0.00 | 0.14 | 0.01 | 96 | 1014.4 | |
| 20260906081016 | 70 | 0.0 | 0.0 | 0.00 | 0.14 | 0.01 | 95 | 1014.3 | |
| 20260906080016 | 70 | 0.0 | 2.0 | 0.00 | 0.14 | 0.01 | 96 | 1014.2 | |
| 20260906075036 | 70 | 0.0 | 0.0 | 0.00 | 0.14 | 0.01 | 96 | 1014.1 | |
| 20260906074036 | 70 | 0.0 | 0.0 | 0.00 | 0.14 | 0.01 | 96 | 1014.1 | |
| 20260906073016 | 70 | 0.0 | 0.0 | 0.00 | 0.14 | 0.01 | 95 | 1014.0 | |
| 20260906072016 | 70 | 0.0 | 2.0 | 0.00 | 0.14 | 0.01 | 96 | 1014.2 | |
| 20260906071016 | 70 | 0.0 | 0.0 | 0.01 | 0.14 | 0.01 | 95 | 1014.3 | |
| 20260906070036 | 70 | 0.0 | 2.0 | 0.01 | 0.14 | 0.01 | 95 | 1014.4 | |
| 20260906065016 | 70 | 0.0 | 1.0 | 0.01 | 0.14 | 0.01 | 95 | 1014.5 | |
| 20260906064037 | 71 | 0.0 | 0.0 | 0.01 | 0.14 | 0.01 | 95 | 1014.5 | |
| 20260906063015 | 71 | 0.0 | 2.0 | 0.01 | 0.14 | 0.01 | 95 | 1014.7 | |
| 20260906062016 | 71 | 0.0 | 2.0 | 0.01 | 0.14 | 0.01 | 96 | 1014.8 | |
| 20260906061016 | 71 | 0.0 | 1.0 | 0.00 | 0.13 | 0.00 | 95 | 1014.9 | |
| 20260906060035 | 71 | 0.0 | 0.0 | 0.00 | 0.13 | 0.00 | 95 | 1015.1 | |
| 20260906055016 | 71 | 0.0 | 2.0 | 0.00 | 0.13 | 0.00 | 96 | 1014.9 | |
| 20260906054015 | 71 | 0.0 | 2.0 | 0.00 | 0.13 | 0.00 | 95 | 1015.0 | |
| 20260906053035 | 71 | 0.0 | 0.0 | 0.00 | 0.13 | 0.00 | 95 | 1014.9 | |
| 20260906052017 | 71 | 0.0 | 2.0 | 0.00 | 0.13 | 0.00 | 95 | 1014.7 | |
| 20260906051017 | 71 | 0.0 | 2.0 | 0.00 | 0.13 | 0.00 | 95 | 1014.7 | |
| 20260906050018 | 71 | 0.0 | 2.0 | 0.00 | 0.13 | 0.00 | 95 | 1014.8 | |
| 20260906045015 | 71 | 0.0 | 1.0 | 0.00 | 0.13 | 0.00 | 95 | 1015.1 | |
| 20260906044038 | 71 | 0.0 | 2.0 | 0.00 | 0.13 | 0.00 | 95 | 1015.0 | |
| 20260906043017 | 71 | 0.0 | 0.0 | 0.00 | 0.13 | 0.00 | 95 | 1014.8 | |
| 20260906042037 | 71 | 0.0 | 2.0 | 0.00 | 0.13 | 0.00 | 95 | 1014.9 | |
| 20260906041017 | 71 | 0.0 | 2.0 | 0.00 | 0.13 | 0.00 | 95 | 1014.9 | |
| 20260906040017 | 71 | 0.0 | 0.0 | 0.00 | 0.13 | 0.13 | 95 | 1015.0 | |
| 20260906035016 | 71 | 0.0 | 0.0 | 0.00 | 0.13 | 0.13 | 95 | 1015.1 | |
| 20260906034016 | 71 | 0.0 | 2.0 | 0.00 | 0.13 | 0.13 | 95 | 1015.2 | |
| 20260906033016 | 71 | 0.0 | 2.0 | 0.00 | 0.13 | 0.13 | 95 | 1015.3 | |
| 20260906032016 | 71 | 0.0 | 2.0 | 0.00 | 0.13 | 0.13 | 95 | 1015.3 | |
| 20260906031016 | 71 | 0.0 | 2.0 | 0.00 | 0.13 | 0.13 | 95 | 1015.3 | |
| 20260906030016 | 71 | 0.0 | 1.0 | 0.00 | 0.13 | 0.13 | 95 | 1015.1 | |
| 20260906025016 | 71 | 0.0 | 1.0 | 0.00 | 0.13 | 0.13 | 95 | 1015.1 | |
| 20260906024016 | 71 | 315 | 1.0 | 1.0 | 0.00 | 0.13 | 0.13 | 94 | 1015.1 |
| 20260906023016 | 72 | 0.0 | 2.0 | 0.00 | 0.13 | 0.13 | 95 | 1014.8 | |
| 20260906022016 | 72 | 0.0 | 2.0 | 0.00 | 0.13 | 0.13 | 95 | 1014.8 | |
| 20260906021016 | 71 | 0.0 | 1.0 | 0.00 | 0.13 | 0.13 | 94 | 1014.8 | |
| 20260906020016 | 71 | 0.0 | 2.0 | 0.00 | 0.13 | 0.13 | 94 | 1014.3 | |
| 20260906015036 | 71 | 293 | 1.0 | 2.0 | 0.00 | 0.13 | 0.13 | 94 | 1014.4 |
| 20260906014027 | 71 | 0.0 | 2.0 | 0.00 | 0.13 | 0.13 | 94 | 1014.5 | |
| 20260906013016 | 72 | 0.0 | 0.0 | 0.00 | 0.13 | 0.13 | 93 | 1014.1 | |
| 20260906012016 | 72 | 293 | 1.0 | 1.0 | 0.00 | 0.13 | 0.13 | 93 | 1013.9 |
| 20260906011016 | 72 | 0.0 | 0.0 | 0.00 | 0.13 | 0.13 | 93 | 1014.0 | |
| 20260906010016 | 72 | 0.0 | 2.0 | 0.00 | 0.13 | 0.13 | 93 | 1013.8 | |
| 20260906005016 | 72 | 0.0 | 0.0 | 0.00 | 0.13 | 0.13 | 93 | 1013.7 | |
| 20260906004016 | 72 | 0.0 | 2.0 | 0.00 | 0.13 | 0.13 | 93 | 1013.6 | |
| 20260906003016 | 72 | 0 | 1.0 | 1.0 | 0.00 | 0.13 | 0.13 | 92 | 1013.4 |
| 20260906002036 | 73 | 0.0 | 0.0 | 0.00 | 0.13 | 0.13 | 92 | 1013.1 | |
| 20260906001016 | 73 | 0.0 | 1.0 | 0.00 | 0.13 | 0.13 | 92 | 1013.5 | |
| 20260906000015 | 73 | 0.0 | 1.0 | 0.00 | 0.13 | 0.13 | 92 | 1013.5 | |
| 20260905235016 | 74 | 0 | 1.0 | 2.0 | 0.00 | 0.13 | 0.13 | 91 | 1013.3 |
| 20260905234016 | 74 | 90 | 1.0 | 2.0 | 0.01 | 0.13 | 0.13 | 90 | 1013.4 |
| 20260905233035 | 75 | 0.0 | 2.0 | 0.10 | 0.13 | 0.13 | 89 | 1013.2 | |
| 20260905232015 | 75 | 270 | 1.0 | 6.0 | 0.10 | 0.13 | 0.13 | 89 | 1013.4 |
| 20260905231016 | 75 | 225 | 1.0 | 3.0 | 0.10 | 0.13 | 0.13 | 91 | 1013.3 |
| 20260905230016 | 75 | 315 | 1.0 | 4.0 | 0.13 | 0.13 | 0.13 | 88 | 1013.3 |
| 20260905225015 | 76 | 338 | 1.0 | 3.0 | 0.13 | 0.13 | 0.13 | 82 | 1013.3 |
| 20260905224016 | 79 | 0 | 6.0 | 15.0 | 0.12 | 0.12 | 0.12 | 71 | 1013.7 |